Skip Page Navigation
NASA JPL Caltech
NASA Logo - Jet Propulsion Laboratory + View the NASA Portal
+ Near-Earth Object (NEO) Program
Search JPL
JPL Home Earth Solar System Stars & Galaxies Technology
JPL Solar System Dynamics
BODIES ORBITS EPHEMERIDES TOOLS PHYSICAL DATA DISCOVERY FAQ SITE MAP
JPL Small-Body Database Browser
Search: [ help ]  
(1999 YD)
Classification: Apollo [NEO, PHA]          SPK-ID: 3025760
Ephemeris | Orbit Diagram | Orbital Elements | Physical Parameters | Close-Approach Data ]

[ hide orbit diagram ]
Orbit Diagram
Note: Make sure you have Java enabled on your browser to see the applet. This applet is provided as a 3D orbit visualization tool. The applet was implemented using 2-body methods, and hence should not be used for determining accurate long-term trajectories (over several years or decades) or planetary encounter circumstances. For accurate long-term ephemerides, please instead use our Horizons system.
Orbit Viewer

Additional Notes: the orbits shown in the applet are color coded. The planets are white lines, and the asteroid/comet is a blue line. The bright white line indicates the portion of the orbit that is above the ecliptic plane, and the darker portion is below the ecliptic plane. Likewise for the asteroid/comet orbit, the light blue indicates the portion above the ecliptic plane, and the dark blue the portion below the ecliptic plane.

Orbit Viewer applet originally written and kindly provided by Osamu Ajiki (AstroArts), and further modified by Ron Baalke (JPL).


Orbital Elements at Epoch 2456400.5 (2013-Apr-18.0) TDB
Reference: JPL 23 (heliocentric ecliptic J2000)
 Element Value Uncertainty (1-sigma)   Units 
e .5930721195710428 6.5869e-05  
a 2.464207332109364 0.00035302 AU
q 1.002754666592759 1.867e-05 AU
i 1.378853176927066 0.00011915 deg
node 9.546396127318626 0.0017918 deg
peri 61.75674836587903 0.0017346 deg
M 164.4993039302524 0.27292 deg
tp 2455754.881659929484
(2011-Jul-12.38165993)
0.93242 JED
period 1412.909336831801
3.87
0.30362
0.0008313
d
yr
n .2547934185269355 5.4752e-05 deg/d
Q 3.925659997625969 0.00056238 AU
  Orbit Determination Parameters
   # obs. used (total)      99  
   data-arc span      71 days  
   first obs. used      1999-12-17  
   last obs. used      2000-02-26  
   planetary ephem.      DE405  
   SB-pert. ephem.      SB405-CPV-2  
   condition code      5  
   fit RMS      .46754  
   data source      ORB  
   producer      Otto Matic  
   solution date      2011-Sep-14 19:36:42  

Additional Information
 Earth MOID = .0264736 AU 
 T_jup = 3.219 
[ show covariance matrix ]

Ephemeris | Orbit Diagram | Orbital Elements | Physical Parameters | Close-Approach Data ]

Physical Parameter Table
Parameter Symbol Value Units Sigma Reference Notes
absolute magnitude H 21.121 mag 1.2273 23 autocmod 2.5a
SMASSII spectral type spec_B Sk   n/a Binzel et al. (2001) Icarus 151, 139-149  

[ show close-approach data ]
Ephemeris | Orbit Diagram | Orbital Elements | Physical Parameters | Close-Approach Data ]
ABOUT SSD CREDITS/AWARDS PRIVACY/COPYRIGHT GLOSSARY LINKS
FirstGov 2013-May-25 00:37 UT
(server date/time)  
NASA Home Page
Site Manager:   Donald K. Yeomans
Webmaster  Alan B. Chamberlin